Date,TemperatureHighF,TemperatureAvgF,TemperatureLowF,DewpointHighF,DewpointAvgF,DewpointLowF,HumidityHigh,HumidityAvg,HumidityLow,PressureMaxIn,PressureMinIn,WindSpeedMaxMPH,WindSpeedAvgMPH,GustSpeedMaxMPH,PrecipitationSumIn
2014-1-1,68,50,36,42,35,26,81,59,35,30.27,29.92,26,6,28,0.00
2014-1-2,49,36,27,26,23,20,75,59,37,30.54,30.27,22,4,24,0.00
2014-1-3,60,42,26,30,24,18,84,53,26,30.45,30.01,20,2,20,0.00
2014-1-4,72,54,40,42,38,23,88,57,33,30.02,29.72,27,4,27,0.00
2014-1-5,47,34,25,32,19,8,73,56,37,30.57,29.81,28,8,32,0.00
2014-1-6,34,24,15,9,6,2,62,46,30,30.82,30.57,17,2,19,0.00
2014-1-7,50,33,16,25,18,9,79,56,33,30.63,30.26,17,1,18,0.00
2014-1-8,60,47,33,42,38,22,87,72,48,30.27,30.02,18,2,20,0.00
2014-1-9,59,42,30,43,35,25,90,77,54,30.22,29.97,12,1,14,0.00
2014-1-10,72,56,43,55,40,26,96,64,19,29.98,29.71,33,4,33,0.01
2014-1-11,70,50,34,32,26,20,70,44,15,30.20,29.86,17,1,17,0.00
2014-1-12,75,58,40,48,36,25,70,46,24,30.06,29.76,26,3,28,0.00
2014-1-13,61,51,39,48,24,15,75,38,17,30.17,29.83,22,4,22,0.00
2014-1-14,63,46,29,33,24,17,71,45,21,30.44,30.05,29,5,30,0.00
2014-1-15,60,44,28,24,22,18,70,43,23,30.49,30.10,15,2,20,0.00
2014-1-16,68,47,30,30,25,22,74,46,18,30.28,30.05,18,2,22,0.00
2014-1-17,60,44,31,24,20,14,72,43,18,30.41,30.22,10,0,10,0.00
2014-1-18,70,49,30,35,27,20,70,46,23,30.25,30.07,21,2,21,0.00
2014-1-19,71,50,31,31,26,19,74,45,14,30.36,30.06,15,1,17,0.00
2014-1-20,74,56,42,39,28,19,76,40,14,30.29,29.90,20,5,29,0.00
2014-1-21,60,47,38,23,20,17,48,35,21,30.48,30.19,17,2,18,0.00
2014-1-22,70,48,28,27,22,20,71,41,15,30.19,29.94,22,2,22,0.00
2014-1-23,46,33,25,28,10,-8,53,39,22,30.79,30.05,29,8,29,0.00
2014-1-24,46,31,19,15,1,-6,49,28,13,30.79,30.36,17,4,18,0.00
2014-1-25,68,46,27,24,19,14,61,37,17,30.36,30.01,11,1,11,0.00
2014-1-26,75,56,38,32,24,19,57,32,13,30.01,29.67,32,4,32,0.00
2014-1-27,46,35,27,28,7,-7,57,32,21,30.35,29.83,32,7,32,0.00
2014-1-28,32,26,17,6,-2,-6,43,31,22,30.57,30.33,21,5,21,0.00
2014-1-29,53,33,13,11,6,2,69,37,16,30.51,30.16,16,2,16,0.00
2014-1-30,68,48,29,38,27,10,65,46,28,30.16,29.79,28,3,28,0.00
2014-1-31,83,62,45,47,42,34,81,52,18,29.86,29.68,15,4,21,0.00
2014-2-1,60,50,42,49,38,27,84,63,48,29.97,29.68,19,4,20,0.00
2014-2-2,44,32,29,30,26,24,89,80,52,30.33,29.96,24,2,26,0.10
2014-2-3,39,33,27,35,30,22,93,87,83,30.33,29.96,15,1,15,0.02
2014-2-4,62,45,36,42,36,31,100,75,32,30.16,29.85,29,4,30,0.05
2014-2-5,38,26,20,32,17,12,80,70,61,30.57,30.16,27,7,27,0.05
2014-2-6,20,18,15,14,11,8,80,74,69,30.64,30.44,18,4,18,0.00
2014-2-7,38,26,20,27,20,13,91,76,61,30.46,30.22,10,1,11,0.00
2014-2-8,72,46,25,36,29,23,100,60,21,30.24,29.99,27,3,28,0.01
2014-2-9,79,50,36,38,33,27,89,57,16,30.12,29.87,21,4,22,0.00
2014-2-10,37,30,25,34,27,23,93,89,83,30.32,30.11,16,5,22,0.00
2014-2-11,29,26,24,27,24,22,92,91,88,30.43,30.30,17,4,17,0.00
2014-2-12,58,38,23,35,29,21,92,72,41,30.32,30.09,13,1,13,0.01
2014-2-13,76,51,29,37,30,25,88,53,18,30.09,29.84,16,1,20,0.00
2014-2-14,70,57,43,36,31,26,67,39,23,30.09,29.77,21,4,30,0.00
2014-2-15,81,53,34,37,30,25,73,46,19,30.12,29.91,23,2,27,0.00
2014-2-16,87,63,43,56,44,34,73,52,26,29.99,29.80,13,1,14,0.00
2014-2-17,73,63,51,55,34,15,90,43,11,30.15,29.87,26,3,26,0.00
2014-2-18,84,62,41,56,43,24,85,50,33,30.11,29.79,23,2,23,0.00
2014-2-19,88,66,48,62,54,46,97,69,27,29.87,29.57,26,2,26,0.00
2014-2-20,70,62,45,57,37,18,81,46,14,30.10,29.58,35,7,35,0.00
2014-2-21,71,52,31,29,25,22,74,40,17,30.18,29.93,19,2,23,0.00
2014-2-22,83,61,44,49,34,26,66,39,14,29.96,29.74,20,2,24,0.00
2014-2-23,71,59,50,54,42,31,93,59,23,30.09,29.83,20,3,20,0.00
2014-2-24,70,55,43,52,43,33,76,63,49,30.13,29.94,11,1,11,0.00
2014-2-25,60,48,41,52,44,33,93,85,70,30.16,29.94,19,4,19,0.02
2014-2-26,44,36,29,33,20,14,81,54,35,30.39,30.16,23,5,23,0.02
2014-2-27,67,44,25,43,29,16,73,56,34,30.20,29.82,20,2,20,0.00
2014-2-28,84,61,42,42,30,15,83,44,8,29.84,29.70,37,6,37,0.00
2014-3-1,89,68,44,53,40,30,62,38,18,29.90,29.73,25,2,27,0.00
2014-3-2,70,28,19,51,23,12,90,81,49,30.45,29.85,25,10,25,0.00
2014-3-3,39,26,16,17,12,7,76,56,39,30.56,30.30,21,6,21,0.00
2014-3-4,65,46,30,34,24,15,61,44,25,30.30,29.93,15,2,15,0.00
2014-3-5,64,51,41,39,36,33,76,58,38,30.23,29.91,20,4,25,0.00
2014-3-6,64,48,36,37,33,31,86,60,29,30.29,30.01,12,2,16,0.00
2014-3-7,77,59,44,46,40,32,70,51,30,30.01,29.72,21,3,21,0.00
2014-3-8,56,48,40,48,35,28,78,62,49,30.33,29.79,24,6,25,0.00
2014-3-9,66,48,33,36,31,26,74,54,31,30.42,30.19,13,1,13,0.00
2014-3-10,77,57,38,53,41,29,76,56,36,30.22,29.84,19,2,19,0.00
2014-3-11,89,67,51,51,39,13,92,51,6,29.87,29.52,32,7,35,0.00
2014-3-12,59,50,41,35,26,21,61,42,23,30.35,29.87,28,9,40,0.00
2014-3-13,70,52,31,25,21,18,65,34,15,30.36,30.01,18,2,18,0.00
2014-3-14,80,61,43,47,37,23,61,42,28,30.04,29.85,19,2,19,0.00
2014-3-15,80,65,57,63,49,29,93,63,16,29.90,29.59,34,3,34,0.06
2014-3-16,56,51,42,52,35,28,86,55,36,30.13,29.74,41,11,41,0.00
2014-3-17,75,52,31,30,26,21,76,43,15,30.14,29.63,18,2,18,0.00
2014-3-18,88,68,51,31,19,-4,38,20,5,29.87,29.54,29,8,34,0.00
2014-3-19,65,54,43,29,25,19,50,34,20,30.22,29.87,25,5,28,0.00
2014-3-20,80,58,34,33,28,23,64,36,15,30.24,29.93,18,2,18,0.00
2014-3-21,86,69,56,58,49,34,77,52,23,29.95,29.69,24,2,24,0.00
2014-3-22,68,60,52,49,40,32,58,47,42,30.08,29.81,17,4,19,0.00
2014-3-23,55,48,42,37,29,20,64,48,31,30.36,30.08,19,4,23,0.00
2014-3-24,73,54,37,48,37,25,68,54,38,30.26,30.00,10,1,10,0.00
2014-3-25,68,55,42,37,32,28,61,41,27,30.35,30.11,20,4,20,0.00
2014-3-26,64,56,50,54,45,30,81,66,41,30.13,29.81,26,5,26,0.00
2014-3-27,87,72,62,59,42,18,81,46,8,29.81,29.63,34,6,34,0.00
2014-3-28,83,68,54,54,36,28,59,35,14,30.05,29.69,28,4,28,0.00
2014-3-29,77,61,44,39,31,20,71,39,13,30.28,30.05,18,2,18,0.00
2014-3-30,84,67,49,48,37,30,54,35,20,30.16,29.81,28,6,28,0.00
2014-3-31,91,73,58,57,47,31,82,47,12,29.84,29.71,24,4,24,0.00
2014-4-1,91,74,56,63,56,50,82,56,27,29.88,29.65,20,3,20,0.00
2014-4-2,91,78,69,65,62,44,79,60,21,29.73,29.52,19,4,20,0.00
2014-4-3,93,78,65,63,47,10,79,43,8,29.89,29.54,32,5,35,0.00
2014-4-4,70,58,45,33,26,11,58,33,13,30.16,29.90,29,4,29,0.00
2014-4-5,66,57,49,40,33,28,68,41,27,30.06,29.83,27,4,28,0.02
2014-4-6,61,55,50,50,45,36,90,70,45,29.86,29.72,23,3,23,0.04
2014-4-7,69,55,43,51,46,40,95,74,39,30.09,29.78,22,2,24,0.04
2014-4-8,78,62,44,45,32,26,85,38,15,30.25,30.08,22,5,22,0.00
2014-4-9,90,69,46,38,33,25,68,33,10,30.17,29.91,24,2,24,0.00
2014-4-10,96,78,61,47,38,16,57,28,6,29.96,29.71,30,4,30,0.00
2014-4-11,98,77,59,57,47,34,72,39,12,29.88,29.71,22,2,22,0.00
2014-4-12,94,78,64,61,55,42,81,50,17,29.82,29.61,21,3,21,0.00
2014-4-13,91,76,68,66,59,21,92,59,8,29.70,29.47,29,4,29,0.03
2014-4-14,69,50,42,51,30,19,67,48,26,30.32,29.62,32,13,33,0.03
2014-4-15,69,51,31,22,18,12,65,31,12,30.40,30.05,14,2,14,0.00
2014-4-16,78,60,43,39,28,19,47,32,18,30.05,29.77,21,4,26,0.00
2014-4-17,65,59,54,56,51,39,88,74,47,30.17,29.86,14,2,16,0.00
2014-4-18,77,65,54,54,50,45,89,64,35,30.22,30.03,15,1,15,0.00
2014-4-19,78,68,55,57,53,50,84,61,42,30.10,29.91,18,3,20,0.00
2014-4-20,70,65,60,65,60,52,95,84,55,30.06,29.92,18,2,20,0.49
2014-4-21,90,75,62,65,59,48,96,65,25,29.99,29.84,20,3,20,0.49
2014-4-22,86,73,58,60,52,44,87,52,24,30.03,29.83,14,1,17,0.00
2014-4-23,94,77,61,63,57,50,79,52,25,29.87,29.53,24,3,24,0.00
2014-4-24,84,75,65,63,46,31,83,43,16,29.88,29.61,23,4,24,0.00
2014-4-25,91,74,51,56,47,39,74,41,25,29.97,29.70,23,4,23,0.00
2014-4-26,95,80,65,65,60,55,86,55,28,29.76,29.45,22,4,22,0.00
2014-4-27,87,78,70,67,42,19,86,37,11,29.54,29.39,47,10,47,0.00
2014-4-28,86,73,55,35,25,20,33,18,10,29.69,29.51,35,7,35,0.00
2014-4-29,74,66,59,36,28,18,41,26,13,30.00,29.62,30,8,30,0.00
2014-4-30,69,60,51,32,29,25,45,31,20,30.19,30.01,23,5,26,0.00
2014-5-1,73,60,44,32,27,21,53,32,15,30.21,30.04,18,1,19,0.00
2014-5-2,80,65,48,35,28,18,53,29,10,30.09,29.88,26,3,27,0.00
2014-5-3,94,72,45,33,26,19,55,24,7,30.03,29.87,20,1,20,0.00
2014-5-4,96,78,54,40,31,23,43,21,8,29.99,29.78,21,2,22,0.00
2014-5-5,103,83,61,57,44,26,68,32,8,29.85,29.58,18,2,18,0.00
2014-5-6,102,85,68,62,49,17,67,36,5,29.69,29.48,17,3,24,0.00
2014-5-7,99,84,68,66,60,49,78,47,20,29.68,29.47,30,4,31,0.02
2014-5-8,92,81,68,67,49,27,79,42,10,29.77,29.59,24,4,24,0.00
2014-5-9,91,77,59,61,40,25,84,35,10,29.88,29.70,14,2,14,0.00
2014-5-10,99,82,61,60,51,39,76,41,13,29.80,29.56,22,2,22,0.00
2014-5-11,96,83,68,65,62,55,78,53,29,29.66,29.47,29,6,29,0.00
2014-5-12,83,76,64,69,59,47,76,57,37,29.95,29.56,27,6,27,0.00
2014-5-13,64,57,52,50,40,32,72,54,33,30.32,29.94,29,7,32,0.02
2014-5-14,73,59,43,43,32,21,84,44,14,30.36,30.18,24,4,25,0.02
2014-5-15,85,66,41,31,22,13,64,25,7,30.26,30.03,37,2,37,0.00
2014-5-16,94,77,59,40,28,18,33,18,8,30.07,29.78,28,4,28,0.00
2014-5-17,95,79,63,54,43,28,48,30,17,29.89,29.73,11,2,16,0.00
2014-5-18,91,77,64,60,56,52,81,52,28,29.95,29.78,25,5,25,0.00
2014-5-19,94,79,64,60,57,50,82,50,23,29.91,29.74,15,5,22,0.00
2014-5-20,96,80,65,61,56,48,76,47,20,29.91,29.78,27,6,27,0.00
2014-5-21,92,80,68,62,59,56,78,51,30,29.94,29.80,25,4,25,0.00
2014-5-22,91,80,70,66,62,60,74,57,36,29.97,29.83,21,4,21,0.00
2014-5-23,87,75,66,67,64,61,94,70,43,29.96,29.82,18,4,24,0.50
2014-5-24,82,70,62,69,66,60,94,86,60,29.98,29.83,34,4,34,1.11
2014-5-25,76,65,62,63,61,59,95,87,57,30.04,29.80,24,4,28,1.12
2014-5-26,85,71,60,64,61,55,95,73,38,29.98,29.78,46,3,49,1.83
2014-5-27,88,74,60,67,62,55,97,70,34,29.91,29.78,17,3,18,1.83
2014-5-28,86,75,62,64,61,58,90,64,39,29.93,29.81,21,3,21,0.16
2014-5-29,89,78,66,66,62,57,90,61,35,29.90,29.78,9,1,13,0.00
2014-5-30,93,81,68,67,62,51,89,57,26,29.85,29.74,16,2,17,0.00
2014-5-31,92,81,69,68,65,61,87,61,38,29.88,29.77,11,1,11,0.00
2014-6-1,94,82,69,70,67,64,88,61,40,29.86,29.70,18,2,21,0.00
2014-6-2,91,82,72,68,66,62,84,60,45,29.87,29.72,23,4,23,0.00
2014-6-3,91,82,70,69,67,63,89,62,41,29.91,29.79,20,4,22,0.00
2014-6-4,98,84,70,70,67,63,88,58,34,29.81,29.64,20,4,20,0.00
2014-6-5,98,85,71,70,68,65,87,60,39,29.72,29.61,21,4,22,0.00
2014-6-6,92,83,73,70,68,65,87,63,44,29.81,29.67,25,6,25,0.00
2014-6-7,94,84,75,70,67,64,79,57,39,29.86,29.69,22,5,25,0.00
2014-6-8,84,76,66,71,67,62,92,75,59,29.94,29.68,22,4,24,0.31
2014-6-9,83,73,61,70,60,50,93,68,37,29.85,29.61,39,3,39,0.44
2014-6-10,88,74,60,61,55,50,81,55,28,29.93,29.78,18,3,18,0.00
2014-6-11,100,80,64,73,65,59,84,62,35,29.88,29.59,35,3,37,0.79
2014-6-12,92,80,68,73,69,61,87,70,49,29.88,29.64,27,2,28,0.79
2014-6-13,90,80,70,71,69,67,90,72,52,29.95,29.78,15,1,15,0.06
2014-6-14,95,80,65,71,67,61,94,67,43,29.99,29.64,33,4,40,0.55
2014-6-15,95,84,73,72,70,67,86,63,46,29.81,29.68,23,4,24,0.55
2014-6-16,94,83,74,70,68,65,82,61,42,29.88,29.76,21,4,22,0.00
2014-6-17,92,83,75,73,70,67,86,65,47,29.87,29.74,26,6,26,0.00
2014-6-18,91,81,74,72,69,66,81,66,47,29.86,29.74,23,4,23,0.00
2014-6-19,89,82,75,70,67,62,79,62,47,29.95,29.81,25,5,25,0.00
2014-6-20,82,77,71,69,67,64,83,72,62,30.02,29.91,12,1,12,0.00
2014-6-21,82,75,68,72,68,65,94,80,61,29.99,29.82,18,1,18,0.19
2014-6-22,93,80,71,73,70,68,89,72,48,29.85,29.70,13,2,14,0.19
2014-6-23,91,79,68,72,69,64,88,71,52,29.93,29.72,23,2,22,0.00
2014-6-24,87,78,72,71,67,59,88,70,39,30.00,29.88,21,2,21,0.00
2014-6-25,94,80,68,72,68,65,92,69,44,29.98,29.78,25,2,25,0.00
2014-6-26,92,81,68,70,67,65,90,66,43,29.91,29.71,20,2,20,0.00
2014-6-27,93,82,73,70,69,67,86,65,45,29.76,29.60,23,5,25,0.00
2014-6-28,96,85,77,72,71,69,80,63,43,29.79,29.66,22,5,25,0.00
2014-6-29,96,87,76,73,69,64,82,58,37,29.86,29.77,23,4,25,0.00
2014-6-30,99,86,75,72,65,57,85,54,26,29.86,29.69,25,5,25,0.00
2014-7-1,97,85,74,71,65,58,84,55,28,29.89,29.72,19,4,22,0.00
2014-7-2,98,84,73,68,64,57,78,54,27,29.98,29.86,21,2,22,0.00
2014-8-3,91,86,79,59,57,54,50,37,30,29.97,29.90,10,2,13,0.00
2014-8-4,97,83,71,69,61,55,80,51,27,30.02,29.86,18,1,22,0.00
2014-8-5,99,86,72,68,63,56,81,50,26,29.99,29.85,11,1,12,0.00
2014-8-6,101,88,74,67,61,55,68,43,23,29.93,29.76,12,2,15,0.00
2014-8-7,105,89,74,71,62,56,66,43,22,29.83,29.66,17,2,20,0.00
2014-8-8,103,90,76,70,62,57,65,42,24,29.85,29.70,12,1,15,0.00
2014-8-9,102,89,76,67,60,55,66,41,22,29.90,29.77,13,1,15,0.00
2014-8-10,101,88,76,66,61,57,63,43,24,29.95,29.81,17,2,24,0.00
2014-8-11,96,81,69,70,66,64,93,64,35,30.02,29.87,37,3,44,21.62
2014-8-12,94,81,71,71,68,64,90,67,39,30.06,29.91,10,1,13,200.67
2014-8-13,97,84,68,67,61,54,75,50,26,30.03,29.90,11,1,12,0.00
2014-8-14,98,84,70,64,61,58,79,49,28,29.98,29.83,15,1,16,0.00
2014-8-15,103,87,72,67,60,55,70,44,22,29.91,29.72,15,1,15,0.00
2014-8-16,99,87,79,70,65,59,64,49,30,29.86,29.73,20,2,20,0.00
2014-8-17,92,81,74,71,67,58,82,63,37,29.89,29.78,20,3,23,0.01
2014-8-18,78,73,70,72,69,67,95,87,75,29.93,29.79,21,1,27,0.08
2014-8-19,90,78,70,71,69,65,95,75,48,29.87,29.73,13,2,19,0.00
2014-8-20,96,83,72,70,67,60,87,62,35,29.87,29.75,13,3,20,0.13
2014-8-21,98,86,75,73,69,65,85,61,36,29.90,29.80,15,3,17,0.00
2014-8-22,99,86,75,71,62,51,84,50,21,29.94,29.81,17,2,20,0.00
2014-8-23,98,85,72,66,61,54,77,47,24,29.90,29.77,13,2,16,0.00
2014-8-24,101,87,74,70,65,61,77,50,29,29.86,29.72,10,1,15,0.00
2014-8-25,99,86,73,70,64,60,78,50,30,29.88,29.75,10,1,12,0.00
2014-8-26,98,87,73,69,64,59,69,48,31,29.96,29.80,16,2,19,0.00
2014-8-27,98,86,74,71,66,58,81,55,28,29.96,29.81,11,1,12,0.00
2014-8-28,98,86,72,68,63,59,69,48,29,29.88,29.68,24,2,36,0.00
2014-8-29,93,80,70,72,70,66,93,72,45,29.84,29.72,24,2,29,0.08
2014-8-30,98,84,72,72,68,59,90,63,28,29.88,29.75,19,2,19,0.00
2014-8-31,100,86,72,71,67,63,87,58,30,29.87,29.72,15,2,16,0.00
2014-9-1,102,88,75,70,67,61,83,53,29,29.79,29.67,21,3,21,0.00
2014-9-2,98,86,75,71,67,62,82,55,34,29.82,29.73,15,3,19,0.00
2014-9-3,95,84,74,69,67,63,80,58,38,29.88,29.77,19,3,20,0.00
2014-9-4,95,82,71,71,66,60,88,61,33,29.94,29.82,14,3,21,0.00
2014-9-5,92,81,71,73,68,64,91,65,42,29.99,29.83,14,2,17,0.04
2014-9-6,86,77,68,68,66,64,86,69,52,30.05,29.92,21,5,23,0.00
2014-9-7,85,75,66,70,66,63,92,77,57,30.07,29.93,13,2,14,0.00
2014-9-8,95,81,68,71,68,64,93,67,37,29.98,29.83,15,2,15,0.00
2014-9-9,98,85,73,69,66,63,82,56,34,29.88,29.68,17,2,19,0.00
2014-9-10,103,87,75,71,65,60,75,52,26,29.75,29.61,20,3,23,0.00
2014-9-11,87,80,72,68,66,65,78,64,52,29.93,29.75,20,4,22,0.00
2014-9-12,75,68,57,68,62,52,90,80,70,30.20,29.90,22,5,23,0.00
2014-9-13,68,60,53,56,53,50,93,79,63,30.29,30.16,18,3,20,0.00
2014-9-14,83,71,60,65,60,55,84,71,53,30.20,30.06,10,0,10,0.00
2014-9-15,84,76,69,70,67,64,87,74,55,30.08,29.99,8,1,9,0.00
2014-9-16,91,80,70,72,67,64,95,68,42,30.06,29.88,9,1,11,0.02
2014-9-17,94,80,73,72,70,66,89,74,42,29.93,29.75,21,1,22,0.00
2014-9-18,86,75,71,76,70,69,94,86,63,29.86,29.74,13,1,17,0.00
2014-9-19,79,73,70,73,70,68,97,90,77,29.90,29.80,11,1,13,1.04
2014-9-20,84,76,71,72,71,69,96,84,65,29.93,29.83,13,1,14,0.00
2014-9-21,90,79,71,73,69,63,95,74,44,30.03,29.93,12,1,13,0.01
2014-9-22,90,79,70,68,66,64,88,67,43,30.11,29.98,8,0,10,0.00
2014-9-23,87,76,67,67,62,57,77,63,49,30.09,29.94,11,1,12,0.00
2014-9-24,82,73,65,61,58,54,79,61,46,30.10,30.00,9,0,12,0.00
2014-9-25,85,73,62,58,54,44,78,55,24,30.12,30.01,9,0,10,0.00
2014-9-26,82,72,63,65,62,58,92,72,51,30.08,29.96,13,1,14,0.00
2014-9-27,84,74,68,66,63,59,90,69,44,30.02,29.89,14,1,17,0.00
2014-9-28,87,74,63,64,60,56,91,65,36,30.02,29.91,12,0,15,0.00
2014-9-29,89,75,62,64,60,58,89,63,37,29.97,29.81,13,0,14,0.00
2014-9-30,92,78,64,66,61,58,84,59,36,29.83,29.63,13,2,15,0.00
2014-10-1,96,81,67,70,66,62,89,62,38,29.73,29.59,14,2,17,0.00
2014-10-2,93,80,68,71,61,49,87,56,26,29.93,29.67,24,5,26,0.00
2014-10-3,85,70,53,54,47,35,85,49,17,30.17,29.93,17,1,21,0.00
2014-10-4,86,69,51,52,47,42,77,48,29,30.18,29.87,16,1,18,0.00
2014-10-5,92,74,56,62,56,47,76,55,32,29.88,29.65,12,1,14,0.00
2014-10-6,93,77,63,66,61,55,88,63,29,29.83,29.71,12,1,14,0.00
2014-10-7,98,80,63,68,56,44,87,51,17,29.86,29.74,15,1,18,0.00
2014-10-8,92,78,65,69,60,52,84,56,34,29.91,29.79,14,2,15,0.00
2014-10-9,91,79,67,68,63,57,92,60,38,29.86,29.71,20,3,24,0.00
2014-10-10,91,76,58,72,64,55,92,69,43,29.98,29.70,24,4,27,0.01
2014-10-11,60,56,53,55,50,47,92,81,69,30.11,29.92,22,5,23,0.05
2014-10-12,86,67,48,66,56,47,95,72,42,30.03,29.58,17,1,21,0.01
2014-10-13,75,64,56,67,48,38,93,58,30,30.06,29.54,35,9,35,0.01
2014-10-14,76,62,49,51,42,36,82,51,25,30.19,30.04,18,3,18,0.00
2014-10-15,86,66,47,50,44,37,88,53,18,30.12,29.93,15,0,15,0.00
2014-10-16,94,70,49,49,45,42,86,47,17,29.94,29.74,16,1,16,0.00
2014-10-17,86,70,54,57,51,44,80,54,32,29.92,29.79,13,1,13,0.00
2014-10-18,80,69,58,58,56,51,85,64,45,30.04,29.91,12,1,13,0.00
2014-10-19,83,70,60,64,60,56,93,72,46,30.07,29.93,13,1,13,0.00